YR221 LRIA-LRIA

Flight info

Callsign YR221
Flight time N/A
Altitude 4000
Route LRIA/32
Aircraft C172/L-SFG/C

Departure

Time 2026-05-01 15:08
Airport Iaşi International Airport (LRIA)

Arrival

Time N/A
Airport Iaşi International Airport (LRIA)
Time Latitude Longitude Altitude Speed Heading
2026-05-01 15:02 47.17701 27.61856 371 ft 0 kts 236°
2026-05-01 15:04 47.17700 27.61850 371 ft 4 kts 278°
2026-05-01 15:04 47.17759 27.61908 373 ft 18 kts 58°
2026-05-01 15:04 47.17787 27.62017 371 ft 13 kts 62°
2026-05-01 15:04 47.17845 27.62165 369 ft 19 kts 53°
2026-05-01 15:05 47.17994 27.62095 373 ft 29 kts 324°
2026-05-01 15:05 47.18032 27.62078 375 ft 10 kts 151°
2026-05-01 15:05 47.17911 27.62184 370 ft 29 kts 150°
2026-05-01 15:05 47.17696 27.62355 364 ft 30 kts 149°
2026-05-01 15:06 47.17573 27.62509 360 ft 10 kts 65°
2026-05-01 15:06 47.17619 27.62484 361 ft 8 kts 309°
2026-05-01 15:06 47.17654 27.62425 363 ft 0 kts 311°
2026-05-01 15:07 47.17684 27.62397 363 ft 23 kts 327°
2026-05-01 15:07 47.17955 27.62147 371 ft 64 kts 330°
2026-05-01 15:07 47.18328 27.61799 592 ft 63 kts 323°
2026-05-01 15:07 47.18686 27.61397 797 ft 61 kts 323°
2026-05-01 15:08 47.18979 27.61013 1016 ft 56 kts 319°
2026-05-01 15:08 47.19150 27.60487 1166 ft 72 kts 274°
2026-05-01 15:08 47.18941 27.59777 1399 ft 74 kts 244°
2026-05-01 15:08 47.18547 27.59194 1547 ft 90 kts 218°
2026-05-01 15:09 47.17978 27.58716 1676 ft 98 kts 209°
2026-05-01 15:09 47.17401 27.58273 1886 ft 105 kts 200°
2026-05-01 15:09 47.16595 27.57987 1998 ft 113 kts 198°
2026-05-01 15:09 47.15909 27.57866 2291 ft 112 kts 182°
2026-05-01 15:10 47.15078 27.57908 2296 ft 129 kts 164°
2026-05-01 15:10 47.13246 27.58517 2176 ft 131 kts 168°
2026-05-01 15:10 47.12364 27.58783 2180 ft 127 kts 168°
2026-05-01 15:11 47.11504 27.59037 2176 ft 124 kts 168°
2026-05-01 15:11 47.09846 27.59536 2181 ft 117 kts 168°
2026-05-01 15:11 47.09038 27.59772 2189 ft 122 kts 168°
2026-05-01 15:12 47.08206 27.60003 2189 ft 121 kts 168°
2026-05-01 15:12 47.06533 27.60484 2188 ft 127 kts 168°
2026-05-01 15:12 47.05668 27.60726 2193 ft 125 kts 168°
2026-05-01 15:13 47.03864 27.62780 2176 ft 114 kts 107°
2026-05-01 15:14 47.03411 27.64859 2193 ft 107 kts 97°
2026-05-01 15:14 47.03251 27.65919 2189 ft 106 kts 95°
2026-05-01 15:14 47.03472 27.67819 2188 ft 99 kts 38°
2026-05-01 15:15 47.04527 27.69162 2191 ft 101 kts 15°
2026-05-01 15:15 47.05722 27.68253 2194 ft 100 kts 327°
2026-05-01 15:16 47.06835 27.67044 2194 ft 101 kts 338°
2026-05-01 15:16 47.08179 27.66816 2186 ft 95 kts
2026-05-01 15:17 47.09470 27.67073 2181 ft 89 kts
2026-05-01 15:18 47.11428 27.67333 2182 ft 100 kts 340°
2026-05-01 15:18 47.11989 27.66737 2192 ft 100 kts 328°
2026-05-01 15:19 47.13882 27.65380 2184 ft 105 kts 326°
2026-05-01 15:19 47.15377 27.64276 1084 ft 138 kts 335°
2026-05-01 15:19 47.16224 27.63619 643 ft 133 kts 332°
2026-05-01 15:20 47.17494 27.62571 360 ft 76 kts 332°
2026-05-01 15:20 47.18033 27.62365 575 ft 80 kts
2026-05-01 15:20 47.18605 27.62286 724 ft 90 kts 333°
2026-05-01 15:21 47.19226 27.61876 769 ft 107 kts 340°
2026-05-01 15:21 47.19942 27.61586 899 ft 107 kts 346°
2026-05-01 15:21 47.20684 27.61403 1021 ft 106 kts 346°
2026-05-01 15:21 47.21340 27.61540 1242 ft 109 kts 59°
2026-05-01 15:22 47.19738 27.62272 1187 ft 124 kts 173°
2026-05-01 15:22 47.18916 27.62342 1436 ft 118 kts 186°
2026-05-01 15:22 47.18130 27.61967 1561 ft 118 kts 203°
2026-05-01 15:23 47.17336 27.61500 1602 ft 127 kts 207°
2026-05-01 15:23 47.16596 27.61176 1799 ft 97 kts 83°
2026-05-01 15:23 47.17203 27.61664 1050 ft 135 kts 13°
2026-05-01 15:23 47.18089 27.62206 816 ft 133 kts 56°
2026-05-01 15:24 47.18354 27.63469 980 ft 120 kts 70°
2026-05-01 15:24 47.18611 27.64577 1204 ft 111 kts 49°
2026-05-01 15:24 47.19273 27.64967 1324 ft 97 kts 340°
2026-05-01 15:24 47.19629 27.64054 1170 ft 119 kts 262°
2026-05-01 15:25 47.18928 27.63418 1061 ft 135 kts 193°
2026-05-01 15:25 47.18001 27.63034 917 ft 138 kts 192°
2026-05-01 15:25 47.17080 27.62905 791 ft 128 kts 184°
2026-05-01 15:25 47.16265 27.63236 441 ft 121 kts 150°
2026-05-01 15:26 47.15496 27.63733 492 ft 125 kts 164°
2026-05-01 15:26 47.14740 27.63925 465 ft 97 kts 232°
2026-05-01 15:26 47.14544 27.63161 319 ft 73 kts 331°
2026-05-01 15:26 47.14999 27.63041 257 ft 74 kts 45°
2026-05-01 15:27 47.15374 27.63446 317 ft 84 kts 97°
2026-05-01 15:27 47.15271 27.64317 471 ft 89 kts 93°
2026-05-01 15:27 47.15614 27.64685 423 ft 99 kts 299°
2026-05-01 15:28 47.16771 27.64074 847 ft 102 kts 19°
2026-05-01 15:28 47.17400 27.64575 1007 ft 105 kts
2026-05-01 15:28 47.18062 27.65001 1150 ft 110 kts 44°
2026-05-01 15:29 47.19102 27.66495 1603 ft 90 kts 36°
2026-05-01 15:29 47.19734 27.67014 1304 ft 119 kts 15°
2026-05-01 15:29 47.21122 27.66505 1466 ft 102 kts 358°
2026-05-01 15:30 47.22208 27.66221 1675 ft 92 kts 348°
2026-05-01 15:31 47.24824 27.65178 2185 ft 91 kts 336°
2026-05-01 15:31 47.25808 27.63778 2191 ft 105 kts 318°
2026-05-01 15:32 47.26826 27.62212 2192 ft 108 kts 318°
2026-05-01 15:32 47.27195 27.60139 2189 ft 118 kts 271°
2026-05-01 15:33 47.26314 27.57102 2186 ft 123 kts 247°
2026-05-01 15:34 47.25377 27.53734 2188 ft 123 kts 246°